DL7GAI-7 Weather Reports


time (UTC)temp
F
wind
direction
speed
knots
gust
knots
rain 1hr
in
rain 24hr
in
rain mn
in
humidity
%
barometer
mb
20200810105429 78 180 3.5 6.1 0.00 0.00 0.00 56 1013.6
20200810104024 78 180 3.5 6.1 0.00 0.00 0.00 56 1013.6
20200810102753 77 90 3.5 6.1 0.00 0.00 0.00 54 1013.7
20200810101315 77 90 3.5 6.1 0.00 0.00 0.00 54 1013.7
20200810095852 78 45 1.7 4.3 0.00 0.00 0.00 56 1013.8
20200810094510 78 45 1.7 4.3 0.00 0.00 0.00 56 1013.8
20200810093125 73 180 1.7 4.3 0.00 0.00 0.00 63 1014.2
20200810091728 73 180 1.7 4.3 0.00 0.00 0.00 63 1014.2
20200810090454 73 225 1.7 5.2 0.00 0.00 0.00 65 1014.2
20200810085034 73 225 1.7 5.2 0.00 0.00 0.00 65 1014.2
20200810083716 73 225 1.7 5.2 0.00 0.00 0.00 65 1014.2
20200810082349 73 225 1.7 3.5 0.00 0.00 0.00 67 1014.3
20200810080918 73 225 1.7 3.5 0.00 0.00 0.00 67 1014.3
20200810075617 71 135 1.7 3.5 0.00 0.00 0.00 69 1014.5
20200810074315 71 135 1.7 3.5 0.00 0.00 0.00 69 1014.5
20200810072958 70 0 2.6 3.5 0.00 0.00 0.00 69 1014.6
20200810071558 70 0 2.6 3.5 0.00 0.00 0.00 69 1014.6
20200810070308 68 0 1.7 3.5 0.00 0.00 0.00 77 1014.7
20200810064941 68 0 1.7 3.5 0.00 0.00 0.00 77 1014.7
20200810063619 68 0 1.7 3.5 0.00 0.00 0.00 77 1014.7
20200810062220 65 45 0.9 1.7 0.00 0.00 0.00 85 1015.1
20200810060935 65 45 0.9 1.7 0.00 0.00 0.00 85 1015.1
20200810055519 64 0 1.7 3.5 0.00 0.00 0.00 88 1015.0
20200810054230 64 0 1.7 3.5 0.00 0.00 0.00 88 1015.0
20200810052931 64 270 0.9 2.6 0.00 0.00 0.00 90 1015.1
20200810051714 64 270 0.9 2.6 0.00 0.00 0.00 90 1015.1
20200810050358 64 0 1.7 3.5 0.00 0.00 0.00 88 1014.9
20200810045053 64 0 1.7 3.5 0.00 0.00 0.00 88 1014.9
20200810043823 64 0 1.7 3.5 0.00 0.00 0.00 88 1014.9
20200810042451 65 225 0.9 2.6 0.00 0.00 0.00 89 1014.7
20200810041138 65 225 0.9 2.6 0.00 0.00 0.00 89 1014.7
20200810035859 65 0 1.7 2.6 0.00 0.00 0.00 89 1014.8
20200810034535 65 0 1.7 2.6 0.00 0.00 0.00 89 1014.8
20200810033155 65 270 2.6 2.6 0.00 0.00 0.00 88 1014.8
20200810031756 65 270 2.6 2.6 0.00 0.00 0.00 88 1014.8
20200810030342 66 315 1.7 4.3 0.00 0.00 0.00 87 1014.9
20200810024905 66 315 1.7 4.3 0.00 0.00 0.00 87 1014.9
20200810023433 67 0 2.6 4.3 0.00 0.00 0.00 86 1014.7
20200810022111 67 0 2.6 4.3 0.00 0.00 0.00 86 1014.7
20200810020752 67 0 2.6 4.3 0.00 0.00 0.00 86 1014.7
20200810015424 69 270 3.5 4.3 0.00 0.00 0.00 79 1014.6
20200810014120 69 270 3.5 4.3 0.00 0.00 0.00 79 1014.6
20200810012705 68 0 1.7 3.5 0.00 0.00 0.00 80 1014.7
20200810011348 68 0 1.7 3.5 0.00 0.00 0.00 80 1014.7
20200810010020 68 0 1.7 3.5 0.00 0.00 0.00 80 1014.7
20200810004713 68 0 1.7 3.5 0.00 0.00 0.00 80 1014.7
20200810003401 69 225 1.7 3.5 0.00 0.00 0.00 74 1014.8
20200810001924 69 225 1.7 3.5 0.00 0.00 0.00 74 1014.8
20200810000547 71 0 3.5 3.5 0.00 0.00 0.00 67 1014.8
20200809235110 71 0 3.5 3.5 0.00 0.00 0.00 67 1014.8
20200809233740 71 0 3.5 3.5 0.00 0.00 0.00 67 1014.8
20200809232256 71 0 1.7 2.6 0.00 0.00 0.00 69 1014.8
20200809230859 71 0 1.7 2.6 0.00 0.00 0.00 69 1014.8
20200809225429 72 0 2.6 5.2 0.00 0.00 0.00 65 1014.7
20200809224144 72 0 2.6 5.2 0.00 0.00 0.00 65 1014.7
20200809222736 73 0 2.6 5.2 0.00 0.00 0.00 62 1014.6
20200809221442 73 0 2.6 5.2 0.00 0.00 0.00 62 1014.6
20200809220058 74 0 1.7 7.0 0.00 0.00 0.00 60 1014.6
20200809214635 74 0 1.7 7.0 0.00 0.00 0.00 60 1014.6
20200809213304 75 0 3.5 7.0 0.00 0.00 0.00 57 1014.3
20200809211913 75 0 3.5 7.0 0.00 0.00 0.00 57 1014.3
20200809210530 76 0 5.2 7.0 0.00 0.00 0.00 57 1014.4
20200809205324 76 0 5.2 7.0 0.00 0.00 0.00 57 1014.4
20200809204003 76 0 5.2 7.0 0.00 0.00 0.00 57 1014.4
20200809202657 77 0 4.3 5.2 0.00 0.00 0.00 58 1014.1
20200809201337 77 0 4.3 5.2 0.00 0.00 0.00 58 1014.1
20200809200026 78 45 1.7 3.5 0.00 0.00 0.00 58 1013.7
20200809194645 78 45 1.7 3.5 0.00 0.00 0.00 58 1013.7
20200809193242 81 0 1.7 3.5 0.00 0.00 0.00 52 1013.4
20200809191829 81 0 1.7 3.5 0.00 0.00 0.00 52 1013.4
20200809190517 85 0 1.7 2.6 0.00 0.00 0.00 47 1013.1
20200809185049 85 0 1.7 2.6 0.00 0.00 0.00 47 1013.1
20200809183715 85 0 1.7 2.6 0.00 0.00 0.00 47 1013.1
20200809182453 89 0 1.7 2.6 0.00 0.00 0.00 37 1012.9
20200809181104 89 0 1.7 2.6 0.00 0.00 0.00 37 1012.9
20200809175613 88 180 1.7 6.1 0.00 0.00 0.00 37 1013.0
20200809174314 88 180 1.7 6.1 0.00 0.00 0.00 37 1013.0
20200809173049 88 90 1.7 6.1 0.00 0.00 0.00 38 1013.4
20200809171654 88 90 1.7 6.1 0.00 0.00 0.00 38 1013.4
20200809170304 87 180 3.5 7.8 0.00 0.00 0.00 40 1013.6
20200809164922 87 180 3.5 7.8 0.00 0.00 0.00 40 1013.6
20200809163705 87 180 3.5 7.8 0.00 0.00 0.00 40 1013.6
20200809162227 88 180 4.3 7.8 0.00 0.00 0.00 39 1013.9
20200809160810 88 180 4.3 7.8 0.00 0.00 0.00 39 1013.9
20200809155438 88 180 3.5 7.8 0.00 0.00 0.00 35 1014.0
20200809154022 88 180 3.5 7.8 0.00 0.00 0.00 35 1014.0
20200809152626 88 135 3.5 7.0 0.00 0.00 0.00 37 1014.2
20200809151217 88 135 3.5 7.0 0.00 0.00 0.00 37 1014.2
20200809145930 86 180 5.2 7.8 0.00 0.00 0.00 39 1014.8
20200809144606 86 180 5.2 7.8 0.00 0.00 0.00 39 1014.8
20200809143239 86 180 3.5 7.8 0.00 0.00 0.00 42 1015.0
20200809141928 86 180 3.5 7.8 0.00 0.00 0.00 42 1015.0
20200809140457 86 180 3.5 7.0 0.00 0.00 0.00 43 1015.3
20200809135119 86 180 3.5 7.0 0.00 0.00 0.00 43 1015.3
20200809133903 86 180 3.5 7.0 0.00 0.00 0.00 43 1015.3
20200809132422 84 180 4.3 7.0 0.00 0.00 0.00 42 1015.8
20200809131131 84 180 4.3 7.0 0.00 0.00 0.00 42 1015.8
20200809125638 83 180 3.5 7.8 0.00 0.00 0.00 46 1016.0
20200809124300 83 180 3.5 7.8 0.00 0.00 0.00 46 1016.0
20200809123034 82 180 3.5 7.0 0.00 0.00 0.00 56 1016.2
20200809121631 82 180 3.5 7.0 0.00 0.00 0.00 56 1016.2
20200809120216 79 180 4.3 6.1 0.00 0.00 0.00 59 1016.8
20200809114859 79 180 4.3 6.1 0.00 0.00 0.00 59 1016.8
20200809113517 78 180 3.5 6.1 0.00 0.00 0.00 58 1017.2
20200809112118 78 180 3.5 6.1 0.00 0.00 0.00 58 1017.2
20200809110809 78 180 3.5 6.1 0.00 0.00 0.00 58 1017.2